Preview of NWS' New Version of Forecast
This preview is not operational and should not be used for support decisions.

Regional Weather Roundup (RWR)

Issued by Gray - Portland, ME (GYX)

                            
000
ASUS41 KGYX 171405
RWRGYX
WEATHER ROUNDUP FOR MAINE AND NEW HAMPSHIRE
NATIONAL WEATHER SERVICE GRAY ME
900 AM EST SUN FEB 17 2019

MEZ002-005-006-010-012-015-018-020-021-024-026-027-029-171500-
MAINE
  
CITY           SKY/WX    TMP DP  RH WIND       PRES   REMARKS
PORTLAND       FAIR      22   6  50 N6        30.12R                  
SANFORD        FAIR      21   8  57 N3        30.12R                  
BAR HARBOR     FAIR      18   6  59 NW8       30.09R                  
WISCASSET      FAIR      22   6  50 VRB5      30.12R                  
ROCKLAND       FAIR      19   7  59 NW9       30.10R                  
FRYEBURG       FAIR      18   4  54 CALM      30.09R                  
LEWISTONAUBURN FAIR      19   5  54 NW8       30.10R                  
AUGUSTA        FAIR      18   5  57 NW6       30.09R                  
WATERVILLE     FAIR      17   5  59 CALM      30.07R                  
BANGOR         FAIR      16   2  54 NW13      30.09R WCI   2          
GREENVILLE       N/A      7  -6  55 NW15G23   29.96R WCI -10          
MILLINOCKET    FAIR      11  -1  58 NW13G23   30.07R WCI  -4          
HOULTON        NOT AVBL                                               
PRESQUE ISLE   FAIR      12   1  61 NW9       30.03R                  
FRENCHVILLE    FAIR       7  -4  60 NW20G31   29.96R WCI -13          
CARIBOU        FAIR       9  -3  58 NW10G17   29.99R WCI  -5          
$$

NHZ002-005-008-009-011-012-014-171500-
NEW HAMPSHIRE
  
CITY           SKY/WX    TMP DP  RH WIND       PRES   REMARKS
PORTSMOUTH     SUNNY     23   6  47 NW8       30.11R                  
ROCHESTER      FAIR      21   6  52 NW8       30.10R                  
NASHUA         FAIR      22   8  55 NW13      30.14R WCI  10          
MANCHESTER     FAIR      22   5  48 NW10      30.12R WCI  11          
CONCORD        FAIR      18   5  57 NW12G18   30.12R WCI   5          
LACONIA        FAIR      19   4  51 W8        30.09R                  
PLYMOUTH       FAIR      18   5  57 W12G22    30.10S WCI   5          
BERLIN         FAIR      13   4  67 NW7       30.08R                  
WHITEFIELD     FAIR      10   4  76 CALM      30.12R                  
JAFFREY        NOT AVBL                                               
KEENE          FLURRIES  19   8  62 N12       30.15R WCI   7          
LEBANON        FAIR      15   4  61 CALM      30.16R                  
MT WASHINGTON  MOSUNNY    9 -18  28 NW36        N/A  WCI -16          
$$

VTZ005-007-008-171500-
VERMONT
  
CITY           SKY/WX    TMP DP  RH WIND       PRES   REMARKS
ST JOHNSBURY     N/A      6   4  91 MISG      30.16R                  
MONTPELIER     FAIR       8   4  83 N5        30.15S                  
BURLINGTON     FAIR      11   2  67 N7        30.21F                  
$$

MAZ007-012-024-CTZ003-RIZ002-NYZ038-NYZ072-171500-
SOUTHERN NEW ENGLAND AND NY
  
CITY           SKY/WX    TMP DP  RH WIND       PRES   REMARKS
BOSTON         FAIR      27   7  42 NW12      30.14R WCI  17          
WORCESTER      FAIR      20   8  60 NW13      30.07R WCI   7          
NANTUCKET      FAIR      31  19  61 N13       30.11R                  
PROVIDENCE     FAIR      27  11  51 NW8       30.14R                  
HARTFORD       FAIR      26  11  52 NW10      30.16R WCI  16          
ALBANY         FAIR      21   8  57 N9        30.19S                  
NEW YORK CITY  FAIR      29  12  49 NE10      30.18R WCI  20          
$$

ANZ081-ANZ082-ANZ150-NHZ014-MEZ023>029-171500-
COASTAL MARINE OBSERVATIONS
  
STATION/POSITION TIME  TEMP    WIND        PRES    WAVE
                       AIR SEA DIR/SP/G            HT/PER
                 (UTC) (F)     (DEG/KT/KT) (MB)    (FT/S)
MOUNT DESERT ROC 1300   20     310/ 20/ 23 1017.7R
MATINICUS ROCK   1300   21     340/ 13/ 17 1018.2R
ISLE OF SHOALS   1300   22     310/ 10/ 12 1018.9R
JEFFREYS LEDGE   1338      40                N/A     3/ 9
CASHES LEDGE BUO 1350   28 40              1018.7R   3/ 8
$$

.............KEY..............
   WCI - WIND CHILL
   TC  - TEMPERATURE IN CELSIUS
   VSB - VISIBILITY IN MILES
   HX  - HEAT INDEX
   FAIR- INDICATES FEW OR NO CLOUDS BELOW 12,000 FT, WITH NO 
         SIGNIFICANT WEATHER AND/OR OBSTRUCTIONS TO VISIBILITY.